Back to catalog

ATLAS CENTAUR 2 DEB

AliveLEO
NORAD 19638·DEBRIS·🇺🇸 United States

Launched Nov 27, 1963 from Cape Canaveral Space Force Station

Loading…

Next Passes (next 24 hours)

TLE

FreshSource: Space-Track

Epoch: Sep 14, 2026, 23:37 UTC

1 19638U 63047S   26257.98443404  .00001347  00000-0  32988-2 0  9992
2 19638  31.0158 212.8722 0674737 141.2798 287.3829 12.57188525585952

Track ATLAS CENTAUR 2 DEB in real time with AllMySat

Download on the App Store